Temperature
13 13 12 12 11 11 10 10 10 9 9 9 9 9 9 9 9 9 9 9 9 9 10 10 10 10 11 11 11 12 12 12 12 13 13 13 13 14 14 14 15 15 15
13 12 12 11 11 10 10 10 9 9 9 9 9 9 9 9 9 9 9 9 9 9 9 9 9 10 10 10 11 11 11 12 12 12 12 13 13 13 14 14 14 15 15
13 12 12 11 11 10 10 9 9 9 9 9 9 9 9 9 9 9 9 9 9 9 9 9 9 9 9 10 10 11 11 11 11 11 12 12 13 13 13 14 14 14 15
12 12 11 11 10 10 9 9 9 9 9 9 9 8 8 8 8 8 8 8 8 8 8 8 9 9 9 9 10 10 10 11 11 11 11 12 12 12 13 13 13 14 14
12 11 11 10 10 10 9 9 9 9 9 8 8 8 8 8 8 8 8 8 8 8 8 8 8 8 8 9 9 10 10 10 11 11 11 12 12 12 12 13 13 13 13
12 11 11 10 10 10 9 9 9 9 8 8 8 8 8 8 8 8 8 8 8 8 8 8 8 8 8 9 9 9 9 9 10 11 11 11 12 12 12 12 12 12 12
12 11 10 10 10 9 9 9 9 8 8 8 8 8 8 8 8 8 8 8 7 7 7 8 8 8 8 8 8 8 9 9 9 9 10 11 11 11 11 11 12 12 12
12 11 10 10 10 9 9 9 9 8 8 8 8 8 8 8 8 8 8 8 7 7 7 7 7 8 8 8 8 8 8 8 9 9 9 10 10 11 11 11 11 11 12
12 11 10 10 9 9 9 9 9 8 8 8 8 8 8 8 8 8 8 7 7 7 7 7 7 7 7 7 7 7 8 8 9 9 9 9 10 10 10 11 11 11 11
12 11 10 10 9 9 9 9 9 8 8 8 8 8 8 8 8 8 7 7 7 7 7 7 7 7 7 7 7 7 7 8 8 9 9 9 9 10 10 10 10 11 11
11 11 10 10 9 9 9 9 8 8 8 8 8 8 8 8 7 7 7 7 6 7 7 7 7 7 7 7 7 7 7 8 8 8 9 9 9 9 10 10 10 10 11
11 10 10 10 9 9 9 9 8 8 8 8 8 8 8 8 7 7 7 7 7 6 6 7 7 6 6 7 7 7 7 7 7 8 8 9 9 9 9 10 10 10 10
11 10 10 10 9 9 9 9 8 8 8 8 8 8 8 8 8 7 7 7 6 6 6 6 6 6 6 6 6 7 7 7 7 7 8 9 9 9 9 10 10 10 10
11 10 10 10 10 9 9 9 9 8 8 8 8 8 8 8 8 7 7 6 6 6 6 6 6 6 6 6 6 6 6 7 7 7 8 9 9 9 9 9 9 9 10
11 10 10 10 10 9 9 9 8 8 8 8 8 8 8 8 8 7 7 6 6 6 6 6 6 6 6 6 6 6 6 7 7 7 8 8 8 9 9 9 9 9 9
11 10 10 10 10 9 9 9 9 9 9 8 8 8 8 8 7 7 7 7 7 6 6 6 6 6 6 6 6 6 7 7 7 7 7 8 8 8 9 9 9 9 9
11 10 10 10 10 9 9 9 9 9 9 9 9 8 8 8 8 7 7 7 7 6 6 6 6 6 6 6 6 6 7 7 7 7 7 8 8 8 8 9 9 9 9
11 10 10 10 10 9 9 9 9 9 9 9 9 9 8 8 8 8 7 7 7 7 7 7 6 6 6 7 7 7 7 7 7 7 7 8 8 8 8 9 9 9 9
11 10 10 10 10 9 9 9 9 9 9 9 9 9 8 8 8 8 7 7 7 7 7 7 7 7 7 7 7 7 7 7 7 7 7 7 8 8 8 9 9 9 9
11 11 10 10 10 10 10 10 10 9 9 9 9 9 9 8 8 8 7 7 7 7 7 7 7 7 7 7 7 7 7 7 7 7 7 8 8 8 8 9 9 9 9
11 11 10 10 10 10 10 10 9 9 9 9 9 9 8 8 8 8 8 8 8 7 7 7 7 7 7 7 7 7 7 7 7 7 7 8 8 8 8 8 9 9 9
11 10 10 10 10 10 9 9 9 9 9 9 9 9 8 8 8 8 8 8 8 8 7 7 7 7 7 7 7 7 7 7 7 8 8 8 8 8 8 8 9 9 9
10 10 10 10 10 9 9 9 9 9 9 9 9 9 8 8 8 8 8 8 8 8 8 7 7 7 7 7 7 7 7 8 8 8 8 8 8 8 8 8 9 9 9
10 10 10 10 9 9 9 9 9 9 9 9 9 9 8 8 8 8 8 8 8 8 8 8 7 7 7 7 7 7 7 7 8 8 8 8 8 8 8 8 8 9 9
10 10 9 9 9 9 9 9 9 8 8 8 8 8 8 8 8 8 8 8 8 8 8 8 8 7 7 7 7 7 7 7 7 7 8 8 8 8 8 8 8 9 9
9 9 9 9 9 9 8 8 8 8 8 8 8 8 8 8 8 8 8 8 8 8 8 8 8 7 7 7 7 7 7 7 7 7 7 7 8 8 8 8 8 9 9
Wind_Speed
4 5 6 7 7 7 8 9 9 9 10 11 11 11 11 11 11 11 12 12 13 13 12 12 13 13 11 10 10 10 9 9 10 8 6 5 5 5 5 7 9 10 13
5 5 7 7 8 8 9 9 9 10 10 11 11 11 12 12 11 12 13 13 13 13 13 13 13 12 13 12 11 11 10 9 10 10 7 6 5 5 5 6 6 8 9
5 7 7 7 8 9 9 10 10 11 11 11 11 12 12 12 12 12 13 13 13 14 14 14 14 14 14 13 13 12 11 10 9 10 9 6 5 4 4 4 4 4 5
6 7 8 8 9 9 10 11 11 11 11 11 11 12 12 12 12 12 12 13 13 14 14 14 14 14 14 14 12 13 12 12 11 10 9 7 6 5 4 4 4 4 4
7 8 8 9 9 10 10 11 10 11 11 11 12 12 12 12 11 11 11 13 13 13 14 14 15 14 12 11 12 12 12 12 11 11 10 8 7 5 5 4 4 4 4
7 8 8 9 10 10 11 11 10 11 11 11 12 12 12 11 6 6 11 14 14 15 15 14 14 14 14 15 15 15 14 14 13 12 11 10 9 7 6 5 5 4 3
8 8 9 9 10 10 11 11 11 11 11 11 12 12 12 12 7 8 10 13 15 15 15 14 13 13 12 14 15 18 18 19 17 14 14 12 10 8 7 8 8 8 5
8 9 9 9 10 10 10 11 11 11 11 11 12 12 12 12 7 8 9 13 15 15 15 15 15 15 14 13 14 15 15 16 16 16 15 14 11 8 8 9 8 7 5
8 8 8 9 10 10 11 11 11 11 11 11 12 12 13 12 8 7 9 12 12 14 14 14 14 14 12 10 14 15 15 14 13 13 12 10 7 5 6 7 7 8 6
8 8 9 9 10 11 11 11 11 11 11 12 12 12 12 13 8 6 8 10 12 12 11 12 12 13 11 9 14 15 16 14 13 12 13 12 12 11 10 10 9 9 6
8 8 9 9 10 11 10 10 11 11 11 12 12 12 12 11 9 8 8 9 11 11 10 10 8 8 12 12 14 15 14 12 12 12 12 12 12 12 12 11 11 9 8
8 9 9 9 10 9 10 10 11 10 11 11 11 11 10 8 7 6 8 10 11 11 11 10 8 4 8 12 12 12 11 10 11 11 11 11 12 12 11 12 12 10 8
8 9 9 10 9 9 9 10 10 9 9 10 10 10 10 9 6 7 10 11 12 10 11 10 10 9 9 10 13 13 11 11 11 11 12 12 11 11 10 10 11 10 10
9 9 9 9 9 9 8 9 9 9 9 9 10 10 10 10 8 7 6 7 9 10 10 10 12 13 12 11 9 11 12 11 12 12 11 11 10 9 10 9 10 10 9
9 9 9 9 8 8 8 8 9 9 8 9 10 11 11 11 8 7 9 10 10 9 9 9 9 8 8 9 9 10 10 11 11 11 11 10 10 10 10 10 9 9 9
9 9 8 8 7 8 9 9 8 11 10 13 14 13 11 12 13 13 12 13 13 11 9 9 9 8 9 9 9 9 10 11 11 11 11 10 11 11 10 10 10 11 10
9 9 8 8 8 8 8 9 10 9 12 15 16 16 16 15 14 14 13 13 13 10 8 9 9 8 8 8 8 9 9 10 10 11 11 11 10 11 11 11 11 11 11
10 9 9 8 8 9 9 9 9 10 10 9 9 13 14 14 14 14 12 9 9 8 9 9 8 8 8 8 8 8 8 9 9 10 10 10 10 11 11 11 11 12 11
9 8 7 8 9 9 9 10 10 10 10 10 10 6 8 11 13 12 9 7 8 8 7 7 7 7 7 7 7 8 8 8 9 9 9 10 10 10 10 11 11 12 11
9 9 9 9 9 9 9 9 9 9 10 10 10 9 7 7 7 6 6 7 7 7 7 7 7 7 7 7 7 7 7 8 9 9 9 9 9 10 11 11 11 11 11
9 8 9 9 9 9 9 9 9 9 10 10 9 7 6 8 9 8 7 6 6 7 7 7 6 7 6 6 6 7 8 7 8 9 9 9 9 10 10 10 11 11 11
8 9 8 8 8 9 9 9 9 9 10 11 9 8 5 8 8 7 7 7 7 6 6 6 6 6 6 6 7 7 7 8 8 9 9 9 9 10 10 10 10 10 10
9 9 9 9 8 8 8 9 9 9 9 9 9 9 8 7 8 7 7 7 7 7 6 6 6 6 6 6 7 7 7 7 7 8 9 10 10 10 10 11 12 12 12
9 9 9 9 8 8 8 8 8 8 9 9 8 8 8 7 8 8 7 7 7 7 6 5 6 6 7 6 6 7 7 6 7 8 11 11 11 11 11 11 12 13 13
8 8 8 8 8 8 8 8 8 8 8 8 8 8 8 8 8 8 7 7 7 7 6 6 5 5 5 6 6 5 2 2 4 6 8 10 12 12 12 13 12 12 13
7 8 7 7 7 7 7 7 7 8 8 7 7 7 7 7 7 8 7 7 7 6 6 5 4 4 5 4 3 2 2 3 5 6 7 9 11 11 12 11 14 13 14
Wind_Direction
280 285 291 292 294 291 290 293 295 293 293 289 287 286 284 282 280 277 275 278 272 270 268 264 261 265 266 264 257 256 259 260 268 272 273 279 268 266 252 233 220 211 206
283 285 288 294 294 294 296 298 296 292 291 290 289 287 284 283 283 279 277 277 274 271 268 267 264 261 257 259 260 258 258 259 264 271 272 271 263 252 250 238 227 214 204
293 290 292 293 295 295 297 297 295 292 291 291 289 287 286 286 283 280 278 276 273 271 269 267 264 261 260 258 256 255 253 251 251 260 264 264 267 254 233 228 218 203 192
296 294 295 296 297 296 297 298 295 293 292 291 290 288 286 285 282 280 278 277 275 274 271 267 265 261 258 257 256 254 254 254 252 252 257 255 252 250 228 213 201 184 176
295 295 296 297 297 296 297 297 296 293 290 290 290 288 286 284 281 287 290 284 281 277 273 268 264 263 272 269 266 263 257 250 248 246 246 248 243 238 228 212 200 174 166
291 294 297 297 297 297 298 297 294 292 290 290 288 288 288 286 313 308 286 286 283 277 273 270 268 256 247 240 248 259 265 261 255 252 247 242 240 237 228 215 197 185 189
288 293 296 297 298 300 302 300 296 295 293 291 290 289 288 286 274 264 267 279 278 275 273 271 268 265 254 252 239 232 241 245 250 256 256 252 243 231 221 215 205 198 193
289 293 297 298 299 302 301 298 297 294 294 293 293 292 291 289 269 261 267 273 273 271 269 267 265 266 262 259 258 252 247 239 233 236 246 250 248 241 224 219 214 197 176
292 297 300 301 300 300 299 300 299 297 295 294 292 292 290 289 269 253 266 283 274 271 268 266 265 264 258 250 256 256 255 251 239 233 242 248 251 235 220 217 208 193 183
298 300 300 298 296 297 298 299 299 297 293 294 294 292 290 289 281 250 259 279 279 278 274 268 256 252 266 249 251 251 249 247 247 231 223 225 228 222 211 217 215 204 191
299 297 295 294 293 292 294 295 296 295 296 294 294 293 290 284 276 244 242 272 282 284 282 277 272 227 231 237 246 254 257 262 253 243 233 225 221 218 215 214 216 212 201
292 291 293 294 295 296 295 293 293 293 291 291 293 296 295 288 276 261 233 249 272 279 280 281 286 264 240 237 240 248 256 261 250 242 234 227 219 215 212 209 209 212 209
288 289 293 296 295 294 295 294 293 291 291 298 302 304 306 307 290 227 231 240 245 262 277 287 290 280 262 245 237 238 239 238 238 235 231 225 221 217 210 204 203 203 203
283 288 292 292 294 297 296 294 296 298 300 303 305 306 307 306 306 309 295 267 240 253 270 268 251 248 248 255 242 224 229 231 231 232 230 227 220 210 209 205 200 193 194
282 286 287 290 295 296 292 293 292 294 298 294 301 303 305 305 322 338 308 299 302 307 308 287 274 262 251 242 238 232 226 222 225 230 229 226 217 210 206 202 198 193 196
278 283 289 294 297 295 297 295 257 252 258 248 252 266 286 283 292 291 284 277 276 278 279 270 269 264 257 247 240 233 228 224 223 224 224 221 215 209 204 199 197 196 195
271 281 287 290 293 292 294 297 300 281 244 242 243 244 249 272 281 281 280 278 270 257 255 263 266 264 258 250 241 237 232 225 220 223 219 215 212 209 203 198 198 197 196
266 269 267 278 284 287 288 290 291 298 305 301 259 234 239 251 261 267 269 276 267 239 252 264 267 264 257 249 241 235 233 225 219 218 217 212 208 207 203 199 198 199 197
266 271 275 282 283 282 284 285 286 292 296 301 306 285 234 243 245 250 245 260 276 277 269 268 267 266 260 248 238 230 226 220 215 211 213 212 208 206 204 201 198 192 198
256 250 257 274 279 281 281 284 290 297 299 302 305 311 315 304 297 284 255 264 271 277 276 274 270 265 260 253 240 229 225 219 213 211 212 210 207 207 205 202 200 194 196
267 261 228 257 271 280 284 288 293 297 299 302 305 311 307 302 299 300 299 290 284 283 281 276 268 259 254 249 241 232 225 218 215 212 209 206 204 204 204 201 200 199 196
263 271 272 273 279 281 286 289 290 292 296 301 305 303 262 281 297 303 302 294 290 286 278 269 265 257 252 250 242 233 228 221 213 210 209 206 205 204 202 201 199 195 195
254 263 268 271 274 275 274 279 287 293 298 302 304 308 308 307 307 305 299 295 295 290 282 270 263 259 251 244 245 242 236 227 220 213 211 207 203 204 204 203 202 197 194
253 259 266 271 274 277 281 285 289 295 301 305 306 308 310 314 311 308 304 299 297 295 289 279 270 265 260 250 241 238 239 237 230 220 216 212 207 205 204 207 206 200 197
254 258 264 269 273 277 282 287 293 299 302 303 305 310 312 314 314 314 309 305 304 302 301 295 287 281 276 267 258 248 231 246 262 254 221 217 213 207 205 206 204 200 197
255 258 264 271 274 277 281 286 291 299 302 305 313 316 316 318 320 324 323 320 315 310 307 301 299 294 285 273 272 261 206 211 224 251 247 225 215 210 207 208 206 202 199
Height
1527 1526 1524 1523 1522 1519 1517 1515 1513 1511 1508 1507 1505 1503 1501 1500 1499 1497 1496 1495 1494 1493 1493 1492 1492 1491 1492 1492 1492 1491 1491 1490 1489 1488 1488 1487 1487 1487 1488 1490 1492 1495 1499
1524 1523 1521 1519 1517 1515 1514 1511 1509 1506 1504 1502 1500 1498 1497 1495 1494 1492 1491 1490 1489 1488 1487 1487 1486 1486 1486 1486 1486 1486 1486 1485 1485 1484 1483 1483 1483 1484 1484 1486 1488 1491 1494
1521 1519 1518 1516 1513 1511 1509 1507 1504 1502 1500 1498 1495 1493 1492 1490 1488 1486 1485 1484 1483 1482 1481 1480 1480 1480 1480 1480 1480 1480 1481 1481 1481 1480 1479 1479 1480 1480 1481 1482 1484 1486 1489
1518 1516 1514 1512 1510 1507 1505 1502 1500 1497 1495 1493 1491 1489 1487 1485 1483 1481 1480 1478 1477 1476 1475 1474 1474 1474 1474 1474 1474 1474 1475 1476 1476 1476 1475 1476 1476 1476 1477 1479 1480 1482 1484
1514 1512 1510 1508 1506 1503 1501 1498 1495 1493 1491 1488 1486 1484 1482 1480 1479 1477 1475 1473 1472 1470 1469 1468 1467 1467 1467 1467 1469 1469 1470 1470 1471 1471 1471 1472 1472 1473 1473 1474 1476 1478 1481
1510 1509 1507 1504 1502 1499 1497 1494 1491 1489 1486 1484 1482 1479 1477 1476 1474 1471 1469 1467 1465 1464 1463 1462 1461 1460 1460 1460 1461 1462 1463 1464 1465 1466 1467 1467 1468 1469 1470 1471 1473 1475 1477
1507 1505 1503 1500 1498 1495 1493 1490 1487 1485 1482 1480 1477 1475 1472 1470 1468 1465 1463 1461 1459 1458 1457 1455 1455 1455 1455 1455 1454 1455 1455 1457 1459 1460 1462 1462 1463 1464 1466 1468 1469 1472 1474
1504 1502 1499 1497 1494 1491 1488 1486 1483 1481 1478 1476 1473 1470 1467 1465 1462 1460 1457 1455 1453 1451 1450 1449 1448 1447 1448 1448 1449 1449 1450 1451 1452 1453 1455 1457 1459 1460 1462 1464 1465 1468 1471
1500 1498 1496 1493 1490 1487 1484 1482 1479 1476 1473 1471 1468 1465 1462 1459 1457 1454 1452 1449 1447 1445 1444 1443 1442 1441 1441 1441 1442 1442 1443 1445 1446 1447 1449 1451 1453 1455 1456 1459 1461 1464 1466
1497 1494 1491 1488 1485 1483 1480 1477 1475 1472 1469 1466 1463 1460 1457 1454 1451 1449 1446 1444 1442 1440 1438 1437 1435 1435 1435 1435 1435 1436 1437 1438 1441 1442 1443 1445 1447 1449 1451 1454 1456 1459 1462
1492 1489 1487 1484 1481 1479 1476 1473 1470 1467 1464 1461 1458 1455 1452 1449 1446 1443 1441 1438 1437 1435 1433 1432 1430 1429 1428 1428 1429 1430 1431 1433 1434 1436 1437 1439 1441 1443 1446 1448 1451 1455 1458
1487 1485 1483 1480 1478 1475 1472 1469 1466 1463 1460 1457 1454 1451 1448 1445 1442 1439 1436 1433 1431 1429 1427 1426 1425 1423 1422 1422 1422 1423 1425 1426 1428 1430 1431 1433 1436 1438 1441 1443 1446 1449 1453
1483 1481 1479 1476 1474 1471 1468 1465 1462 1459 1456 1454 1451 1448 1444 1441 1438 1434 1431 1428 1426 1424 1422 1420 1419 1418 1417 1416 1416 1417 1419 1420 1422 1424 1426 1428 1431 1433 1436 1438 1441 1444 1448
1479 1477 1475 1472 1470 1467 1464 1461 1459 1456 1453 1450 1447 1444 1440 1437 1434 1431 1428 1425 1422 1419 1417 1415 1413 1412 1411 1411 1411 1411 1412 1414 1416 1418 1420 1423 1425 1428 1431 1433 1437 1440 1444
1475 1473 1471 1469 1466 1463 1460 1458 1455 1453 1450 1446 1443 1440 1437 1433 1430 1426 1423 1420 1418 1416 1413 1410 1409 1407 1406 1406 1406 1406 1407 1409 1411 1413 1415 1417 1420 1423 1426 1429 1432 1436 1439
1471 1470 1468 1465 1462 1459 1457 1454 1451 1448 1445 1442 1438 1435 1432 1428 1424 1421 1418 1415 1413 1410 1408 1406 1404 1403 1402 1401 1401 1401 1402 1403 1405 1407 1410 1412 1415 1418 1421 1424 1428 1431 1435
1466 1465 1463 1461 1458 1455 1453 1450 1447 1444 1441 1437 1434 1431 1427 1424 1420 1417 1414 1411 1408 1406 1403 1401 1400 1398 1397 1397 1396 1397 1398 1399 1400 1403 1405 1407 1410 1414 1417 1420 1424 1427 1431
1462 1460 1458 1456 1454 1451 1449 1446 1443 1440 1437 1434 1430 1427 1423 1419 1416 1413 1410 1407 1404 1402 1400 1398 1396 1394 1393 1392 1392 1392 1393 1394 1396 1398 1400 1403 1406 1409 1413 1416 1419 1423 1427
1457 1456 1454 1452 1449 1447 1444 1442 1439 1436 1433 1429 1426 1423 1419 1416 1412 1409 1406 1403 1401 1399 1396 1394 1392 1391 1389 1389 1388 1389 1389 1390 1392 1394 1396 1399 1402 1406 1409 1412 1416 1419 1423
1452 1450 1448 1446 1445 1443 1440 1438 1435 1432 1429 1426 1423 1420 1416 1413 1409 1406 1403 1400 1398 1395 1393 1391 1389 1387 1386 1385 1385 1386 1386 1387 1389 1391 1393 1396 1399 1402 1405 1409 1412 1415 1419
1448 1446 1443 1441 1440 1438 1436 1433 1431 1428 1425 1422 1419 1416 1412 1409 1406 1403 1400 1397 1395 1392 1390 1387 1385 1384 1383 1382 1382 1383 1383 1384 1386 1388 1391 1393 1396 1399 1402 1405 1409 1412 1416
1442 1441 1439 1438 1436 1433 1431 1429 1426 1424 1421 1418 1415 1412 1408 1406 1403 1400 1397 1394 1391 1389 1387 1384 1382 1381 1380 1379 1380 1380 1381 1382 1383 1385 1388 1390 1393 1396 1399 1402 1405 1409 1412
1435 1434 1434 1432 1430 1428 1426 1424 1422 1420 1417 1414 1411 1408 1405 1403 1400 1397 1394 1391 1388 1386 1383 1381 1379 1378 1377 1376 1376 1377 1378 1379 1381 1382 1385 1387 1390 1392 1395 1399 1402 1405 1409
1430 1429 1428 1427 1425 1424 1422 1420 1418 1416 1413 1410 1408 1405 1402 1399 1396 1393 1390 1388 1385 1383 1381 1379 1377 1375 1374 1374 1373 1374 1375 1376 1377 1379 1381 1384 1386 1389 1392 1395 1399 1402 1405
1425 1424 1423 1422 1421 1419 1418 1416 1414 1412 1409 1407 1404 1402 1399 1396 1394 1391 1388 1385 1382 1380 1378 1376 1374 1373 1371 1370 1370 1370 1371 1372 1373 1376 1377 1380 1382 1385 1388 1392 1395 1399 1402
1420 1419 1418 1417 1416 1415 1414 1412 1410 1408 1406 1404 1401 1399 1396 1394 1391 1388 1385 1383 1380 1378 1376 1374 1372 1370 1369 1368 1367 1366 1367 1368 1370 1372 1374 1376 1379 1382 1385 1388 1392 1395 1399